Date String (YYYY-MM-DD hh:mm:ss) UTC,Instrument flags,absolute air pressure of the measurement (hPa),sample flow rate (lpm),inlet stack bypass flow (lpm),air temperature of the measurement (°C),ambient temperature measured by the external sensor (°C),aerosol sample conditioner tube jacket temperature (°C),OPC LED temperature (°C),internal box temperature (°C),relative humidity of the measurement (%),span deviation,mass concentration of particles derived from Lorenz-Mie calculation of OPC scattering (μg/m³),mass concentration of particles derived from Lorenz-Mie calculation of OPC scattering (μg/m³),mass concentration of particles derived from Lorenz-Mie calculation of OPC scattering (μg/m³)
DateTimeUTC,F1_M11,P_M11,Q1_M11,Q2_M11,T1_M11,T2_M11,T3_M11,T4_M11,T5_M11,U1_M11,ZSPAN_M11,X0_M11,X2_M11,X1_M11
2023-11-16 00:00:00,SystemResetWarning,0829.8,5.00,000.00,028.0,027.0,000.0,036.2,029.5,7.4,0000.0,0024.84,0005.61,0003.70
2023-11-16 00:01:00,SystemResetWarning,0829.7,5.00,000.00,028.0,027.0,000.0,036.2,029.5,7.2,0000.0,0024.19,0005.48,0003.61
2023-11-16 00:02:00,SystemResetWarning,0829.7,5.00,000.00,028.0,027.0,000.0,036.3,029.5,7.0,0000.0,0022.17,0005.19,0003.48
2023-11-16 00:03:00,SystemResetWarning,0829.7,5.01,000.00,028.0,027.0,000.0,036.3,029.5,6.9,0000.0,0019.92,0005.08,0003.38
2023-11-16 00:04:00,SystemResetWarning,0829.7,5.00,000.00,028.0,027.0,000.0,036.3,029.5,6.9,0000.0,0019.39,0004.96,0003.30
2023-11-16 00:05:00,SystemResetWarning,0829.7,5.00,000.00,028.0,027.0,000.0,036.3,029.5,7.0,0000.0,0018.40,0004.90,0003.24
2023-11-16 00:06:00,SystemResetWarning,0829.7,5.00,000.00,028.0,027.0,000.0,036.3,029.4,7.1,0000.0,0018.75,0004.94,0003.20
2023-11-16 00:07:00,SystemResetWarning,0829.7,5.00,000.00,028.0,027.0,000.0,036.3,029.4,7.3,0000.0,0018.62,0004.80,0003.14
2023-11-16 00:08:00,SystemResetWarning,0829.7,5.00,000.00,028.0,027.0,000.0,036.3,029.5,7.3,0000.0,0017.28,0004.72,0003.03
2023-11-16 00:09:00,SystemResetWarning,0829.7,5.00,000.00,028.0,027.0,000.0,036.3,029.4,7.1,0000.0,0016.04,0004.49,0002.88
2023-11-16 00:10:00,SystemResetWarning,0829.7,5.00,000.00,028.0,027.0,000.0,036.3,029.5,6.9,0000.0,0015.96,0004.42,0002.78
2023-11-16 00:11:00,SystemResetWarning,0829.7,5.00,000.00,028.1,027.0,000.0,036.3,029.5,6.9,0000.0,0017.13,0004.33,0002.68
2023-11-16 00:12:00,SystemResetWarning,0829.7,5.00,000.00,028.1,027.0,000.0,036.4,029.5,6.9,0000.0,0017.97,0004.21,0002.55
2023-11-16 00:13:00,SystemResetWarning,0829.7,5.00,000.00,028.1,027.0,000.0,036.4,029.5,6.9,0000.0,0018.77,0004.14,0002.42
2023-11-16 00:14:00,SystemResetWarning,0829.6,4.99,000.00,028.1,027.0,000.0,036.4,029.5,6.9,0000.0,0018.22,0004.02,0002.29
2023-11-16 00:15:00,SystemResetWarning,0829.7,4.99,000.00,028.1,027.0,000.0,036.4,029.5,7.0,0000.0,0017.84,0003.88,0002.17
2023-11-16 00:16:00,SystemResetWarning,0829.7,5.01,000.00,028.1,027.0,000.0,036.4,029.5,7.0,0000.0,0016.53,0003.76,0002.07
2023-11-16 00:17:00,SystemResetWarning,0829.6,5.00,000.00,028.1,027.0,000.0,036.4,029.5,7.2,0000.0,0014.85,0003.58,0001.98
2023-11-16 00:18:00,SystemResetWarning,0829.6,5.00,000.00,028.1,027.0,000.0,036.4,029.5,7.2,0000.0,0014.18,0003.54,0001.95
2023-11-16 00:19:00,SystemResetWarning,0829.7,5.00,000.00,028.1,027.0,000.0,036.4,029.5,7.2,0000.0,0013.97,0003.48,0001.95
2023-11-16 00:20:00,SystemResetWarning,0829.7,5.00,000.00,028.1,027.0,000.0,036.4,029.5,7.2,0000.0,0013.95,0003.48,0001.95
2023-11-16 00:21:00,SystemResetWarning,0829.7,5.00,000.00,028.1,027.0,000.0,036.4,029.5,7.3,0000.0,0013.80,0003.46,0001.95
2023-11-16 00:22:00,SystemResetWarning,0829.7,5.00,000.00,028.1,027.0,000.0,036.4,029.5,7.3,0000.0,0012.96,0003.44,0001.95
2023-11-16 00:23:00,SystemResetWarning,0829.7,5.00,000.00,028.1,027.0,000.0,036.4,029.5,7.3,0000.0,0013.64,0003.41,0001.94
2023-11-16 00:24:00,SystemResetWarning,0829.7,5.00,000.00,028.1,026.9,000.0,036.4,029.5,7.2,0000.0,0012.65,0003.37,0001.95
2023-11-16 00:25:00,SystemResetWarning,0829.7,4.99,000.00,028.1,026.9,000.0,036.4,029.4,7.2,0000.0,0012.88,0003.35,0001.97
2023-11-16 00:26:00,SystemResetWarning,0829.7,5.00,000.00,028.1,026.9,000.0,036.4,029.4,7.1,0000.0,0012.90,0003.37,0001.99
2023-11-16 00:27:00,SystemResetWarning,0829.7,5.00,000.00,028.1,026.9,000.0,036.4,029.5,7.2,0000.0,0012.90,0003.35,0002.04
2023-11-16 00:28:00,SystemResetWarning,0829.7,5.00,000.00,028.1,026.9,000.0,036.4,029.4,7.2,0000.0,0014.17,0003.36,0002.07
2023-11-16 00:29:00,SystemResetWarning,0829.7,5.00,000.00,028.1,026.9,000.0,036.5,029.4,7.1,0000.0,0013.59,0003.38,0002.10
2023-11-16 00:30:00,SystemResetWarning,0829.7,5.00,000.00,028.1,026.9,000.0,036.4,029.5,7.1,0000.0,0013.32,0003.39,0002.11
2023-11-16 00:31:00,SystemResetWarning,0829.8,5.00,000.00,028.1,026.9,000.0,036.4,029.5,7.1,0000.0,0013.06,0003.40,0002.13
2023-11-16 00:32:00,SystemResetWarning,0829.7,5.01,000.00,028.1,026.9,000.0,036.4,029.4,7.1,0000.0,0013.59,0003.41,0002.14
2023-11-16 00:33:00,SystemResetWarning,0829.8,5.00,000.00,028.1,026.9,000.0,036.4,029.4,7.1,0000.0,0014.17,0003.40,0002.14
2023-11-16 00:34:00,SystemResetWarning,0829.7,5.00,000.00,028.1,026.9,000.0,036.5,029.4,7.2,0000.0,0012.32,0003.41,0002.14
2023-11-16 00:35:00,SystemResetWarning,0829.7,5.00,000.00,028.1,026.9,000.0,036.4,029.4,7.2,0000.0,0012.15,0003.41,0002.14
2023-11-16 00:36:00,SystemResetWarning,0829.7,4.99,000.00,028.1,026.9,000.0,036.4,029.5,7.2,0000.0,0011.29,0003.39,0002.13
2023-11-16 00:37:00,SystemResetWarning,0829.7,4.99,000.00,028.1,026.9,000.0,036.4,029.4,7.2,0000.0,0011.69,0003.34,0002.13
2023-11-16 00:38:00,SystemResetWarning,0829.7,5.00,000.00,028.1,026.9,000.0,036.4,029.5,7.2,0000.0,0011.57,0003.31,0002.11
2023-11-16 00:39:00,SystemResetWarning,0829.7,5.01,000.00,028.1,026.9,000.0,036.4,029.5,7.2,0000.0,0011.45,0003.28,0002.08
2023-11-16 00:40:00,SystemResetWarning,0829.8,5.00,000.00,028.1,026.9,000.0,036.4,029.4,7.2,0000.0,0011.37,0003.25,0002.07
2023-11-16 00:41:00,SystemResetWarning,0829.8,5.01,000.00,028.1,026.9,000.0,036.4,029.5,7.3,0000.0,0011.89,0003.21,0002.05
2023-11-16 00:42:00,SystemResetWarning,0829.8,5.00,000.00,028.1,026.9,000.0,036.5,029.5,7.4,0000.0,0012.78,0003.22,0002.04
2023-11-16 00:43:00,SystemResetWarning,0829.8,4.99,000.00,028.1,026.9,000.0,036.5,029.5,7.4,0000.0,0012.55,0003.21,0002.04
2023-11-16 00:44:00,SystemResetWarning,0829.8,5.00,000.00,028.1,026.9,000.0,036.5,029.5,7.3,0000.0,0012.44,0003.23,0002.06
2023-11-16 00:45:00,SystemResetWarning,0829.8,5.00,000.00,028.1,026.9,000.0,036.5,029.4,7.2,0000.0,0012.44,0003.24,0002.09
2023-11-16 00:46:00,SystemResetWarning,0829.8,5.00,000.00,028.1,026.9,000.0,036.5,029.5,7.1,0000.0,0012.45,0003.24,0002.10
2023-11-16 00:47:00,SystemResetWarning,0829.8,5.00,000.00,028.1,026.9,000.0,036.5,029.4,7.0,0000.0,0012.56,0003.25,0002.12
2023-11-16 00:48:00,SystemResetWarning,0829.8,5.01,000.00,028.1,026.9,000.0,036.5,029.5,7.0,0000.0,0012.74,0003.28,0002.14
2023-11-16 00:49:00,SystemResetWarning,0829.8,5.01,000.00,028.1,026.9,000.0,036.5,029.4,6.9,0000.0,0012.92,0003.30,0002.15
2023-11-16 00:50:00,SystemResetWarning,0829.8,5.01,000.00,028.1,026.9,000.0,036.5,029.4,6.9,0000.0,0011.95,0003.34,0002.17
2023-11-16 00:51:00,SystemResetWarning,0829.7,4.99,000.00,028.1,026.9,000.0,036.5,029.5,6.8,0000.0,0011.77,0003.35,0002.17
2023-11-16 00:52:00,SystemResetWarning,0829.8,4.99,000.00,028.1,026.9,000.0,036.5,029.5,6.8,0000.0,0011.64,0003.35,0002.16
2023-11-16 00:53:00,SystemResetWarning,0829.8,5.00,000.00,028.1,026.9,000.0,036.5,029.5,6.8,0000.0,0010.58,0003.34,0002.13
2023-11-16 00:54:00,SystemResetWarning,0829.8,5.01,000.00,028.1,026.9,000.0,036.5,029.5,6.9,0000.0,0010.28,0003.32,0002.12
2023-11-16 00:55:00,SystemResetWarning,0829.8,5.01,000.00,028.1,026.9,000.0,036.5,029.4,7.2,0000.0,0010.24,0003.30,0002.10
2023-11-16 00:56:00,SystemResetWarning,0829.8,5.00,000.00,028.1,026.9,000.0,036.5,029.4,7.3,0000.0,0011.25,0003.26,0002.07
2023-11-16 00:57:00,SystemResetWarning,0829.8,4.99,000.00,028.1,026.9,000.0,036.5,029.4,7.3,0000.0,0011.48,0003.26,0002.05
2023-11-16 00:58:00,SystemResetWarning,0829.8,4.99,000.00,028.1,026.9,000.0,036.5,029.4,7.3,0000.0,0011.49,0003.24,0002.03
2023-11-16 00:59:00,SystemResetWarning,0829.8,5.00,000.00,028.1,026.9,000.0,036.5,029.4,7.1,0000.0,0010.96,0003.24,0002.01
